Tracking 31027 objects as of 19-Jul-2025
HD Live streaming from Space Station
objects crossing your sky now

FENGYUN 1C DEB

Track FENGYUN 1C DEB now!
10-day predictions


NORAD ID: 36167
Int'l Code: 1999-025DSQ
Perigee: 688.7 km
Apogee: 791.4 km
Inclination: 98.8 °
Period: 99.5 minutes
Semi major axis: 7111 km
RCS: 0.0111 m2 (small)
Launch date: May 10, 1999
Source: People's Republic of China (PRC)
Launch site: Taiyaun Space Center, China (TSC)

Note: This is SATELLITE DEBRIS
Your satellite tracking list
SPACEBEE-134
Track 1 satellite(s)




NASA's NSSDC Master Catalog

Two Line Element Set (TLE):
1 36167U 99025DSQ 25195.98865786  .00002074  00000-0  55644-3 0  9997
2 36167  98.8197  96.6628 0072240 338.5468  21.2700 14.47771795650977
Source of the keplerian elements: AFSPC